This is the latest recevied weather packets stored in our database for station/object N2PUI. If no packets are shown the sender has not sent any weather packets the latest 10 day(s).
| Time | Temp. | Humidity | Pressure | Rain* | Wind** | Luminosity | Snow |
|---|---|---|---|---|---|---|---|
| 1777731479 | 7.22° C | 57% | 1014.3 hPa | 0 mm | - | 864 W/m² | - |
| 1777731178 | 8.33° C | 57% | 1014.3 hPa | 0 mm | - | 651 W/m² | - |
| 1777730875 | 7.22° C | 60% | 1014.4 hPa | 0 mm | - | 779 W/m² | - |
| 1777730573 | 7.22° C | 64% | 1014.5 hPa | 0 mm | - | 741 W/m² | - |
| 1777730268 | 6.67° C | 62% | 1014.6 hPa | 0 mm | - | 684 W/m² | - |
| 1777729965 | 6.67° C | 61% | 1014.4 hPa | 0 mm | - | 366 W/m² | - |
| 1777729661 | 6.67° C | 64% | 1014.7 hPa | 0 mm | - | 627 W/m² | - |
| 1777729358 | 7.22° C | 64% | 1014.6 hPa | 0 mm | - | 664 W/m² | - |
| 1777729055 | 6.67° C | 67% | 1014.9 hPa | 0 mm | - | 638 W/m² | - |
| 1777728752 | 6.11° C | 68% | 1014.7 hPa | 0 mm | - | 563 W/m² | - |
| 1777728448 | 6.67° C | 69% | 1014.7 hPa | 0 mm | - | 533 W/m² | - |
| 1777728146 | 6.11° C | 68% | 1014.6 hPa | 0 mm | - | 491 W/m² | - |
| 1777727842 | 6.11° C | 69% | 1014.9 hPa | 0 mm | - | 478 W/m² | - |
| 1777727540 | 5.56° C | 70% | 1014.7 hPa | 0 mm | - | 529 W/m² | - |
| 1777727236 | 5.56° C | 70% | 1014.8 hPa | 0 mm | - | 428 W/m² | - |
| 1777726934 | 5.56° C | 70% | 1014.8 hPa | 0 mm | - | 416 W/m² | - |
| 1777726630 | 5.56° C | 69% | 1014.8 hPa | 0 mm | - | 367 W/m² | - |
| 1777726328 | 5.56° C | 70% | 1014.8 hPa | 0 mm | - | 374 W/m² | - |
| 1777726025 | 5.56° C | 69% | 1014.6 hPa | 0 mm | - | 355 W/m² | - |
| 1777725722 | 5.56° C | 70% | 1014.8 hPa | 0 mm | - | 311 W/m² | - |
| 1777725420 | 5.56° C | 71% | 1014.7 hPa | 0 mm | - | 268 W/m² | - |
| 1777725117 | 5.56° C | 71% | 1014.4 hPa | 0 mm | - | 312 W/m² | - |
| 1777724813 | 5.56° C | 71% | 1014.6 hPa | 0 mm | - | 304 W/m² | - |
| 1777724510 | 5.56° C | 71% | 1014.6 hPa | 0 mm | - | 85 W/m² | - |
| 1777724208 | 5.56° C | 72% | 1014.6 hPa | 0 mm | - | 254 W/m² | - |
* Rain latest hour (hover to see other rain measurements)
** Current wind speed in m/s (hover to see current wind gust speed)